Home > Weather > Winterthur > Past weeks

Flag for Switzerland Weather for the Past 2 Weeks in Winterthur, Switzerland

Now
32 °F

Ice fog.


Feels Like: 32 °F
Forecast: 33 / 50 °F
Wind: 2 mph from North

Location: Zurich-Kloten

Current Time: Feb 7, 2016 at 5:47:08 AM

Latest Report: Feb 7, 2016 at 4:20 AM


Visibility: 0 mi

Pressure: 29.74 "Hg

Humidity: 100%

Dew point: 32 °F

Location of WinterthurLocation

Historic Weather in Winterthur — Graph

°F

Winterthur Temperature Yesterday

Maximum temperature yesterday: 52 °F (at 2:20 PM)
Minimum temperature yesterday: 30 °F (at 2:50 AM)
Average temperature yesterday: 37 °F

High & Low Weather Summary for the Past Weeks

 TemperatureHumidityPressure
High55 °F (Feb 1, 11:20 AM)100% (Jan 23, 7:20 AM)30.63 "Hg (Jan 23, 7:20 AM)
Low27 °F (Jan 23, 11:20 PM)47% (Jan 25, 2:50 PM)29.74 "Hg (Feb 7, 2:20 AM)
Average42 °F83%30.30 "Hg
* Reported Jan 23 4:20 AM — Feb 7 4:20 AM, Winterthur, Weather by CustomWeather, © 2016

Note: Actual official high and low records may vary slightly from our data, if they occured in-between our weather recording intervals... More about our weather records

Advertising

Winterthur Weather History for the Previous 24 Hours

 ConditionsComfort  
Time TempWeatherWind HumidityBarometerVisibility
4:20 AM
Sun, Feb 7
32 °FIce fog.2 mph100%29.74 "Hg0 mi
3:50 AM32 °FIce fog.3 mph100%29.74 "Hg0 mi
3:20 AM30 °FIce fog.1 mph100%29.74 "Hg0 mi
2:20 AM30 °FIce fog.2 mph100%29.74 "Hg0 mi
1:50 AM32 °FIce fog.1 mph100%29.77 "Hg0 mi
12:50 AM34 °FFog.2 mph100%29.80 "Hg0 mi
12:20 AM32 °FFog.2 mph100%29.80 "Hg0 mi
11:50 PM
Sat, Feb 6
32 °FFog.2 mph100%29.80 "Hg0 mi
11:20 PM32 °FFog.2 mph100%29.80 "Hg0 mi
10:50 PM34 °FLight fog.3 mph100%29.80 "Hg1 mi
9:50 PM32 °FChilly.3 mph100%29.83 "Hg4 mi
9:20 PM34 °FChilly.2 mph100%29.83 "Hg5 mi
8:50 PM36 °FFog.1 mph100%29.86 "HgN/A
8:20 PM36 °FFog.1 mph87%29.86 "HgN/A
7:50 PM37 °FClear.2 mph93%29.89 "Hg10 mi
7:20 PM41 °FPassing clouds.3 mph93%29.89 "HgN/A
6:50 PM41 °FClear.3 mph87%29.92 "Hg10 mi
6:20 PM41 °FClear.1 mph93%29.92 "Hg10 mi
5:50 PM45 °FClear.3 mph81%29.92 "Hg10 mi
5:20 PM48 °FSunny.1 mph71%29.95 "Hg10 mi
4:50 PM50 °FSunny.3 mph71%29.95 "Hg10 mi
4:20 PM52 °FSunny.5 mph67%29.98 "Hg10 mi
3:50 PM52 °FPassing clouds.6 mph58%29.98 "HgN/A
3:20 PM52 °FSunny.7 mph67%30.01 "Hg10 mi
2:50 PM52 °FSunny.2 mph58%30.01 "Hg10 mi
2:20 PM52 °FPassing clouds.3 mph62%30.04 "HgN/A
1:50 PM50 °FPassing clouds.3 mph67%30.07 "HgN/A
1:20 PM48 °FPassing clouds.3 mph71%30.07 "HgN/A
12:50 PM46 °FPartly sunny.5 mph76%30.09 "Hg4 mi
12:20 PM41 °FFog.2 mph87%30.12 "Hg3 mi
11:50 AM37 °FPartly sunny.2 mph100%30.15 "Hg1 mi
11:20 AM36 °FDense fog.1 mph100%30.15 "Hg0 mi
10:50 AM36 °FFog.2 mph100%30.15 "Hg0 mi
10:20 AM34 °FFog.3 mph100%30.15 "Hg0 mi
9:50 AM32 °FFog.3 mph100%30.18 "Hg0 mi
9:20 AM32 °FIce fog.1 mph100%30.18 "Hg0 mi
8:50 AM32 °FIce fog.2 mph100%30.18 "Hg0 mi
8:20 AM30 °FIce fog.2 mph100%30.18 "Hg0 mi
7:50 AM30 °FIce fog.2 mph100%30.15 "Hg0 mi
7:20 AM30 °FIce fog.1 mph100%30.15 "Hg0 mi
6:50 AM30 °FIce fog.1 mph100%30.18 "Hg0 mi
6:20 AM30 °FIce fog.2 mph100%30.18 "Hg0 mi
5:50 AM30 °FIce fog.1 mph100%30.18 "Hg0 mi
5:20 AM30 °FIce fog.2 mph100%30.18 "Hg0 mi
Weather by CustomWeather, © 2016

See weather overviewHow to use our weather pages